This demonstration page uses our WeatherBlox Daily Observations layout. Learn more.

Left ArrowRight Arrow

39.12711, -84.51439

Hourly Observations for June 8, 2016

Temp ( °F °C ) Dew Point ( °F °C ) Humidity (%) Winds ( mph kmh ) Pressure ( in mb ) Visibility ( mi km ) Precip ( " mm )
12:53 am 00:53 Clear 55 12.8 52 11.1 90 90 Calm 29.88 1012 10 16 0.00 0.00
1:53 am 01:53 Clear 54 12.2 52 11.1 93 93 Calm 29.88 1012 10 16 0.00 0.00
2:53 am 02:53 Mostly Clear 53 11.7 52 11.1 96 96 Calm 29.89 1012 10 16 0.00 0.00
3:53 am 03:53 Mostly Cloudy 52 11.1 52 11.1 100 100 Calm 29.91 1013 10 16 0.00 0.00
4:53 am 04:53 Mostly Cloudy 53 11.7 52 11.1 96 96 Calm 29.92 1013 10 16 0.00 0.00
5:53 am 05:53 Clear 50 10 50 10 100 100 Calm 29.95 1014 10 16 0.00 0.00
6:53 am 06:53 Mostly Cloudy 54 12.2 52 11.1 93 93 Calm 29.97 1015 10 16 0.00 0.00
7:53 am 07:53 Mostly Sunny 60 15.6 50 10 70 70 N 3 6 29.98 1015 10 16 0.00 0.00
8:53 am 08:53 Sunny 61 16.1 48 8.9 63 63 VRB 5 7 30.01 1016 10 16 0.00 0.00
9:53 am 09:53 Sunny 64 17.8 45 7.2 50 50 N 9 15 30.03 1017 10 16 0.00 0.00
10:53 am 10:53 Mostly Sunny 67 19.4 46 7.8 47 47 NNW 6 9 30.03 1017 10 16 0.00 0.00
11:53 am 11:53 Mostly Sunny 68 20 45 7.2 44 44 NNW 8 13 30.02 1017 10 16 0.00 0.00
12:53 pm 12:53 Mostly Sunny 69 20.6 44 6.7 41 41 NW 6 9 30.02 1017 10 16 0.00 0.00
1:53 pm 13:53 Partly Cloudy 71 21.7 47 8.3 42 42 VRB 7 11 30.01 1016 10 16 0.00 0.00
2:53 pm 14:53 Partly Cloudy 71 21.7 47 8.3 42 42 VRB 5 7 30.00 1016 10 16 0.00 0.00
3:53 pm 15:53 Mostly Sunny 73 22.8 47 8.3 40 40 WNW 14 22 29.99 1016 10 16 0.00 0.00
4:53 pm 16:53 Mostly Sunny 74 23.3 47 8.3 38 38 NW 9 15 29.98 1015 10 16 0.00 0.00
5:53 pm 17:53 Mostly Sunny 73 22.8 46 7.8 38 38 NW 7 11 29.98 1015 10 16 0.00 0.00
6:53 pm 18:53 Mostly Sunny 74 23.3 44 6.7 34 34 W 14 22 29.97 1015 10 16 0.00 0.00
7:53 pm 19:53 Sunny 72 22.2 43 6.1 35 35 WNW 8 13 29.98 1015 10 16 0.00 0.00
8:53 pm 20:53 Sunny 70 21.1 42 5.6 37 37 WNW 7 11 29.98 1015 10 16 0.00 0.00
9:53 pm 21:53 Clear 59 15 49 9.4 69 69 Calm 30.00 1016 10 16 0.00 0.00
10:53 pm 22:53 Clear 58 14.4 50 10 75 75 Calm 30.01 1016 10 16 0.00 0.00
11:53 pm 23:53 Clear 55 12.8 50 10 83 83 Calm 30.02 1017 10 16 0.00 0.00

Powered by AerisWeather